Location: Baia Mare
(47.6567°N, 23.5850°E)
Time: 12:56:01
(UTC+02:00)

ISS - Pass Details

Date: 24 December 2018
Orbit: 401 x 408 km, 51.6° (Epoch: 16 December)

Event Time Altitude Azimuth Distance (km) Brightness Sun altitude
Rises 06:19:39 0° 192° (SSW) 2,315 0.1 -18.0°
Reaches altitude 10° 06:22:38 10° 162° (SSE) 1,459 -0.6 -17.5°
Maximum altitude 06:24:07 13° 134° (SE) 1,316 -0.3 -17.2°
Drops below altitude 10° 06:25:37 10° 107° (ESE) 1,463 0.3 -17.0°
Sets 06:28:37 0° 77° (ENE) 2,327 1.1 -16.5°
